GW0469 Weather Reports


time (UTC)temp
C
wind
direction
speed
KPH
gust
KPH
rain 1hr
cm
rain 24hr
cm
rain mn
cm
humidity
%
barometer
mb
20260504191914 28 125 0.0 0.0 0.00 0.00 0.00 67 1010.8
20260504191412 28 181 0.0 3.2 0.00 0.00 0.00 66 1010.9
20260504190907 28 161 1.6 3.2 0.00 0.00 0.00 66 1011.0
20260504190403 28 176 0.0 0.0 0.00 0.00 0.00 67 1011.0
20260504185900 28 150 1.6 3.2 0.00 0.00 0.00 69 1011.0
20260504185357 28 181 0.0 0.0 0.00 0.00 0.00 66 1010.9
20260504184853 28 160 1.6 3.2 0.00 0.00 0.00 66 1011.3
20260504184349 28 185 0.0 0.0 0.00 0.00 0.00 66 1011.3
20260504183845 28 153 4.8 4.8 0.00 0.00 0.00 69 1011.4
20260504183342 28 146 0.0 3.2 0.00 0.00 0.00 68 1011.5
20260504182840 28 177 0.0 0.0 0.00 0.00 0.00 67 1011.3
20260504182337 27 142 1.6 3.2 0.00 0.00 0.00 69 1011.4
20260504181834 27 128 3.2 4.8 0.00 0.00 0.00 68 1011.8
20260504181331 27 141 6.4 8.0 0.00 0.00 0.00 70 1011.6
20260504180830 27 151 0.0 0.0 0.00 0.00 0.00 69 1011.5
20260504180328 27 148 1.6 4.8 0.00 0.00 0.00 72 1011.5
20260504175826 26 173 1.6 3.2 0.00 0.00 0.00 71 1011.8
20260504175322 27 136 4.8 4.8 0.00 0.00 0.00 71 1011.9
20260504174821 27 119 3.2 4.8 0.00 0.00 0.00 72 1012.0
20260504174318 26 164 1.6 3.2 0.00 0.00 0.00 72 1012.0
20260504173815 26 135 4.8 4.8 0.00 0.00 0.00 75 1012.1
20260504173311 26 143 1.6 3.2 0.00 0.00 0.00 75 1012.0
20260504172808 27 138 6.4 8.0 0.00 0.00 0.00 72 1012.2
20260504172305 27 126 4.8 4.8 0.00 0.00 0.00 69 1012.5
20260504171800 27 171 0.0 0.0 0.00 0.00 0.00 71 1012.3
20260504171258 27 151 0.0 1.6 0.00 0.00 0.00 72 1012.3
20260504170755 26 193 0.0 0.0 0.00 0.00 0.00 72 1012.5
20260504170252 26 167 0.0 0.0 0.00 0.00 0.00 73 1012.3
20260504160210 25 159 0.0 0.0 0.00 0.00 0.00 77 1013.1
20260504151138 24 121 1.6 3.2 0.00 0.00 0.00 81 1013.4
20260504150636 24 151 1.6 1.6 0.00 0.00 0.00 82 1013.5
20260504150132 24 167 0.0 1.6 0.00 0.00 0.00 81 1013.6
20260504141101 23 126 4.8 4.8 0.00 0.00 0.00 81 1013.1
20260504140558 23 114 3.2 4.8 0.00 0.00 0.00 82 1013.1
20260504130522 22 103 0.0 0.0 0.00 0.00 0.00 86 1012.6
20260504110409 20 109 0.0 0.0 0.00 0.00 0.00 95 1011.6
20260504100326 19 122 0.0 0.0 0.00 0.00 0.00 98 1011.2
20260504081720 20 137 0.0 0.0 0.00 0.00 0.00 96 1011.6
20260504081216 20 137 0.0 0.0 0.00 0.00 0.00 96 1011.6
20260504080713 20 130 0.0 0.0 0.00 0.00 0.00 95 1011.7
20260504080209 20 82 0.0 0.0 0.00 0.00 0.00 95 1011.3
20260504070137 20 117 0.0 0.0 0.00 0.00 0.00 96 1011.4
20260504050526 20 127 0.0 0.0 0.00 0.00 0.00 98 1012.8
20260504050023 20 109 0.0 0.0 0.00 0.00 0.00 98 1012.9
20260504045519 20 116 0.0 0.0 0.00 0.00 0.00 98 1012.9
20260504045015 20 120 0.0 0.0 0.00 0.00 0.00 98 1012.8
20260504044513 20 90 0.0 0.0 0.00 0.00 0.00 98 1013.0
20260504044009 20 117 0.0 0.0 0.00 0.00 0.00 98 1012.8
20260504043506 20 119 0.0 0.0 0.00 0.00 0.00 98 1012.5
20260504043004 20 120 0.0 0.0 0.00 0.00 0.00 98 1012.6
20260504042500 20 128 0.0 0.0 0.00 0.00 0.00 98 1012.6
20260504041957 20 125 1.6 1.6 0.00 0.00 0.00 99 1012.5
20260504041453 20 134 0.0 0.0 0.00 0.00 0.00 99 1012.6
20260504040949 20 131 0.0 0.0 0.00 0.00 0.00 99 1012.5
20260504040447 20 138 1.6 1.6 0.00 0.00 0.00 99 1012.6
20260504035943 20 138 0.0 0.0 0.00 0.69 0.69 99 1012.8
20260504035441 20 125 0.0 0.0 0.00 0.69 0.69 99 1012.9
20260504034937 20 116 0.0 0.0 0.00 0.69 0.69 99 1012.9
20260504034435 20 156 0.0 0.0 0.00 0.69 0.69 99 1013.0
20260504033931 20 149 0.0 0.0 0.00 0.69 0.69 99 1012.8
20260504033429 20 177 0.0 0.0 0.00 0.69 0.69 99 1012.9
20260504032926 20 175 0.0 0.0 0.00 0.69 0.69 99 1013.1
20260504032423 20 145 0.0 0.0 0.00 0.69 0.69 99 1013.1
20260504031920 20 134 0.0 0.0 0.00 0.69 0.69 99 1013.2
20260504031417 20 114 0.0 0.0 0.00 0.69 0.69 99 1013.5
20260504030913 20 116 0.0 0.0 0.00 0.69 0.69 99 1013.8
20260504030410 20 125 0.0 0.0 0.00 0.69 0.69 99 1013.7
20260504025906 20 128 0.0 0.0 0.00 0.69 0.69 99 1013.7
20260504025403 20 135 0.0 0.0 0.00 0.69 0.69 99 1013.7
20260504024900 20 114 0.0 0.0 0.00 0.69 0.69 98 1013.7
20260504024356 20 125 0.0 0.0 0.00 0.69 0.69 98 1013.6
20260504023854 20 106 0.0 0.0 0.00 0.69 0.69 98 1013.7
20260504023350 20 122 0.0 0.0 0.00 0.69 0.69 98 1013.7
20260504022846 20 151 0.0 0.0 0.00 0.69 0.69 98 1013.5
20260504022343 20 133 0.0 0.0 0.18 0.69 0.69 97 1013.3
20260504021840 20 142 0.0 0.0 0.18 0.69 0.69 97 1013.4
20260504021337 20 134 0.0 0.0 0.00 0.66 0.66 96 1013.2
20260504020834 20 128 0.0 0.0 0.30 0.66 0.66 96 1013.2
20260504020331 20 134 0.0 0.0 1.32 0.66 0.66 95 1013.2
20260504015826 21 132 0.0 0.0 1.85 0.64 0.64 95 1013.2
20260504015323 21 153 0.0 0.0 1.27 0.48 0.48 93 1013.0
20260504014819 21 125 0.0 0.0 0.30 0.33 0.33 91 1013.3
20260504014315 21 144 0.0 0.0 0.00 0.28 0.28 90 1013.0
20260504013813 21 157 0.0 0.0 0.00 0.28 0.28 90 1012.7
20260504013311 21 139 0.0 0.0 0.00 0.28 0.28 90 1013.0
20260504012807 21 126 0.0 0.0 0.00 0.28 0.28 90 1012.9
20260504012305 21 129 1.6 3.2 0.00 0.28 0.28 91 1012.7
20260504011802 21 124 3.2 3.2 0.00 0.28 0.28 90 1012.8
20260504011258 21 139 1.6 1.6 0.00 0.28 0.28 90 1012.7
20260504010754 21 151 3.2 3.2 0.00 0.28 0.28 90 1012.5
20260504010250 21 130 0.0 0.0 0.00 0.28 0.28 90 1012.6
20260504005747 21 126 1.6 3.2 0.00 0.28 0.28 91 1012.4
20260504005244 21 116 3.2 3.2 0.00 0.28 0.28 90 1012.2
20260504004742 21 152 0.0 0.0 0.00 0.28 0.28 90 1012.4
20260504004239 21 147 3.2 3.2 0.00 0.28 0.28 89 1012.5
20260504003735 21 135 3.2 3.2 0.00 0.28 0.28 90 1012.3
20260504003232 21 122 1.6 3.2 0.00 0.28 0.28 89 1012.4
20260504002729 21 151 3.2 3.2 0.00 0.28 0.28 90 1012.3
20260504002226 21 125 3.2 3.2 0.00 0.28 0.28 89 1012.4
20260504001724 21 111 3.2 3.2 0.00 0.28 0.28 89 1012.5
20260504001220 21 119 3.2 3.2 0.00 0.28 0.28 88 1012.6
20260504000717 21 152 0.0 0.0 0.00 0.28 0.28 88 1012.5
20260504000214 21 114 3.2 3.2 0.00 0.28 0.28 89 1012.5
20260503235713 21 137 1.6 3.2 0.00 0.28 0.28 89 1012.2
20260503235209 21 145 0.0 0.0 0.00 0.28 0.28 90 1012.3
20260503234707 21 157 0.0 0.0 0.00 0.28 0.28 90 1012.1
20260503234205 21 150 3.2 3.2 0.00 0.28 0.28 90 1012.1
20260503233701 21 120 3.2 3.2 0.00 0.28 0.28 89 1012.1
20260503233157 21 138 1.6 3.2 0.00 0.28 0.28 89 1012.2
20260503232654 21 140 3.2 3.2 0.00 0.28 0.28 89 1012.2
20260503232151 21 126 3.2 3.2 0.00 0.28 0.28 89 1012.0
20260503231650 21 140 0.0 0.0 0.00 0.28 0.28 89 1012.1
20260503231145 21 145 0.0 0.0 0.00 0.28 0.28 89 1011.9
20260503230642 21 149 0.0 0.0 0.00 0.28 0.28 88 1011.6
20260503230139 21 139 3.2 3.2 0.00 0.28 0.28 89 1012.0
20260503225637 21 165 0.0 0.0 0.00 0.28 0.28 89 1012.0
20260503225136 21 126 1.6 3.2 0.00 0.28 0.28 90 1011.8
20260503224634 21 131 4.8 4.8 0.00 0.28 0.28 90 1011.7
20260503224132 22 159 3.2 3.2 0.00 0.28 0.28 90 1011.7
20260503223630 22 157 4.8 4.8 0.00 0.28 0.28 90 1012.0
20260503223126 22 134 3.2 3.2 0.00 0.28 0.28 92 1011.8
20260503222623 22 144 1.6 3.2 0.00 0.28 0.28 91 1011.8
20260503222121 22 148 0.0 0.0 0.00 0.28 0.28 90 1011.6
20260503221619 22 163 3.2 3.2 0.00 0.28 0.28 90 1011.6
20260503221116 22 117 4.8 4.8 0.00 0.28 0.28 90 1011.7
20260503220613 22 138 3.2 4.8 0.00 0.28 0.28 89 1012.0
20260503220109 22 178 0.0 0.0 0.00 0.28 0.28 90 1011.7
20260503215607 22 115 1.6 3.2 0.00 0.28 0.28 90 1011.7
20260503215103 22 181 0.0 1.6 0.00 0.28 0.28 91 1011.8
20260503214602 22 144 1.6 3.2 0.00 0.28 0.28 90 1011.7
20260503214058 22 151 0.0 0.0 0.00 0.28 0.28 90 1011.7
20260503213557 22 135 1.6 1.6 0.00 0.28 0.28 91 1011.8
20260503213053 22 124 3.2 4.8 0.00 0.28 0.28 91 1012.1
20260503212550 22 165 0.0 0.0 0.00 0.28 0.28 91 1012.0
20260503212047 22 178 0.0 0.0 0.00 0.28 0.28 92 1012.1
20260503211545 22 161 0.0 0.0 0.00 0.28 0.28 92 1012.1
20260503211040 22 148 3.2 3.2 0.00 0.28 0.28 91 1012.1
20260503210537 22 143 0.0 0.0 0.00 0.28 0.28 91 1012.2
20260503210033 22 131 3.2 3.2 0.00 0.28 0.28 89 1012.4
20260503205530 22 138 0.0 1.6 0.00 0.28 0.28 89 1012.3
20260503205026 22 160 0.0 0.0 0.00 0.28 0.28 90 1012.4
20260503204523 22 132 3.2 4.8 0.00 0.28 0.28 89 1012.1
20260503204020 22 132 0.0 1.6 0.00 0.28 0.28 89 1012.3
20260503203517 22 145 1.6 3.2 0.00 0.28 0.28 89 1012.3
20260503203014 22 136 1.6 3.2 0.00 0.28 0.28 89 1012.3
20260503202512 22 135 1.6 3.2 0.00 0.28 0.28 89 1012.2
20260503202010 22 125 3.2 4.8 0.00 0.28 0.28 89 1011.7
20260503201508 22 159 1.6 4.8 0.00 0.28 0.28 88 1012.1
20260503201005 22 126 4.8 9.7 0.00 0.28 0.28 89 1012.1
20260503200501 22 114 0.0 1.6 0.00 0.28 0.28 89 1012.4
20260503195957 22 125 4.8 4.8 0.00 0.28 0.28 89 1012.2
20260503195455 22 142 3.2 3.2 0.00 0.28 0.28 88 1012.6
20260503194951 22 126 3.2 3.2 0.00 0.28 0.28 87 1012.6
20260503194449 23 142 4.8 4.8 0.00 0.28 0.28 87 1012.4
20260503193944 23 149 1.6 4.8 0.00 0.28 0.28 88 1012.4
20260503193439 23 144 0.0 1.6 0.00 0.28 0.28 88 1012.5
20260503192935 23 144 3.2 8.0 0.00 0.28 0.28 86 1012.3
20260503192432 22 121 4.8 4.8 0.00 0.28 0.28 88 1012.6